Погода в Луго

Испания     43°00′49″N   7°33′17″W
темп.,
°C
ветер,
м/с
пор.,
м/с
влажн.,
%
обл.,
%
осадки,
мм/ч
давл.,
гПа
погр.,
м
25 февраля, чт
чт2501:00+7в1194100 0.4 102624
04:00+6ссз2798100 1.9 1025506
07:00+6всв1299100 6.6 1027113
10:00+7с1298100 0.4 1028148
13:00+9ссв2493100 2.9 1029543
16:00+8ссв2695100 1.5 1029644
19:00+7ссв2796100 1.7 1029464
22:00+6св299982 0.0 1031319
26 февраля, пт
пт2601:00+6ссв279963 0.0 1031267
04:00+6св149969 0.0 1031229
07:00+5всв119962 0.0 103122
10:00+8ссв129512 0.0 1031173
13:00+13ссв237511 0.0 1031573
16:00+15ссв24681 0.0 1029637
19:00+10ссв26916 0.0 1029275
22:00+7ссв239954 0.0 1031112
27 февраля, сб
сб2701:00+7ссв249875 0.0 1031168
04:00+6ссв149896 0.0 1030116
07:00+5св139857 0.0 103070
10:00+8св249145 0.0 1030318
13:00+13св246964 0.0 1029728
16:00+13ссв356895 0.0 1027667
19:00+9ссв268470 0.0 1026274
22:00+5ссв139737 0.0 102780
28 февраля, вс
вс2801:00+3ссв119820 0.0 102629
04:00+2ссв11997 0.0 102522
07:00+2св11986 0.0 102422
10:00+6св01841 0.0 1023154
13:00+15ссв12520 0.0 1022645
16:00+17ссз11470 0.0 10191116
19:00+10с13870 0.0 101980
22:00+6с11996 0.0 102122
1 марта, пн
пн101:00+5вюв01986 0.0 102122
04:00+4ююв11950 0.0 102029
07:00+4ююв12950 0.0 102028
10:00+8ююв12810 0.0 1020128
13:00+16ююз23510 0.0 1019825
16:00+17ююз23490 0.0 10181394
19:00+11ю11780 0.3 102023
22:00+7вюв01940 0.0 102222